{"data":{"norad_id":38551,"intl_designator":"2012-035A","name":"ECHOSTAR 17","alt_names":[],"object_type":"PAYLOAD","status":"ACTIVE","operator":null,"country":"US","launch_date":"2012-07-05","launch_site_code":"FRGUI","launch_vehicle":null,"mission":null,"orbit_class":"UNKNOWN","rcs_meters":12.5893,"size_class":null,"mass_kg":null,"dimensions":null,"purposes":["comms"],"wikipedia_slug":null,"has_3d_model":false,"image_url":null,"decayed_at":null,"tle_current":{"epoch":"2026-05-25T03:34:38.682912Z","epoch_age_seconds":56193,"freshness":"FRESH","line1":"1 38551U 12035A   26145.14905883  .00000000  00000+0  00000+0 0  9997","line2":"2 38551   0.0175 311.9204 0002133 116.4688 120.9102  1.00269296 50836","mean_motion":1.00269296,"eccentricity":0.0002133,"inclination_deg":0.0175,"raan_deg":311.9204,"arg_perigee_deg":116.4688,"mean_anomaly_deg":120.9102,"bstar":0,"rev_number":5083,"period_min":1436.1325524815,"perigee_km":35778.298846516,"apogee_km":35796.28661884,"semimajor_km":42165.429732678,"source":"CELESTRAK","updated_at":"2026-05-25T13:38:13.912177Z"}}}